STARLETTE

导读

STARLETTE(全名Satellite de taille adaptée avec réflecteurs laser pour les études de la terre)是法国研制的首颗被动激光大地测量卫星,由法国国家空间研究中心(CNES)主导,于1975年2月6日发射升空。 它携带激光反射器,用于地球物理研究与大地测量,通过激光测距观测地球重力场、海洋潮汐等参数,是人类早期激光卫星测绘的开创性任务,目前该卫星仍在任务周期规划中。

基本信息
目录编号:
7646
目录名称:
STARLETTE
国际标识:
1975-010A
轨道中心:
EARTH
卫星名称:
STARLETTE
卫星全名:
--
卫星状态:
在轨 (已飞行18848 天)
发射日期:
1975-02-06 UTC
国别 :
法国 (FR)
星等 :
--
该卫星已列入 空间交会检测服务 Space Conjunction Data Service (SCDS) ,当前飞行风险评估等级: 无高风险
轨道信息
数据来源 国际轨道数据
星历时间: 2026-09-14T06:31:33+0800
7小时前
查看轨道信息
半长轴: 7333.695km
偏心率: 0.020563
轨道倾角: 49.823°
近地点辐角 356.244°
升交点赤经 114.279°
平近点角 3.690°
近地点: 804.755km
远地点: 1106.361km
周期: 104.170分钟
每日圈数: 13.823516
详细信息
使用方式:
暂无
2D轨道图
3D轨道图
轨道高度分析图
轨道倾角分析图
轨道综合分析图
查看轨道综合分析图
交会数据列表
事件ID 空间交会对象 最接近时刻(TCA) 交会距离 交会风险概率(CRP) 交会风险指数(CRI) 操作
CDM_260915-035500-764605-658223
2026-09-15T
03:55:07+0000
2.905 km
极远距离
1.368289E-6 低风险 0.38
与全量物体交会距离演化趋势 订阅飞行安全评估服务
与全量物体交会风险概率演化趋势 订阅飞行安全评估服务